| time (UTC) | temp F | wind direction | speed MPH | gust MPH | rain 1hr in | rain 24hr in | rain mn in | humidity % | barometer mb |
| 20260505233041 | 48 | 51 | 1.0 | 10.0 | 0.00 | 0.00 | 0.00 | 78 | 1013.5 |
| 20260505231552 | 48 | 4 | 4.0 | 9.0 | 0.00 | 0.00 | 0.00 | 77 | 1013.5 |
| 20260505230043 | 49 | 51 | 4.0 | 9.0 | 0.00 | 0.00 | 0.00 | 76 | 1013.6 |
| 20260505224540 | 49 | 89 | 4.0 | 12.0 | 0.00 | 0.00 | 0.00 | 74 | 1013.6 |
| 20260505223050 | 49 | 76 | 6.0 | 16.0 | 0.00 | 0.00 | 0.00 | 72 | 1013.5 |
| 20260505221549 | 50 | 66 | 8.0 | 17.0 | 0.00 | 0.00 | 0.00 | 75 | 1013.4 |
| 20260505220042 | 50 | 78 | 5.0 | 10.0 | 0.00 | 0.00 | 0.00 | 79 | 1013.2 |
| 20260505214550 | 50 | 91 | 4.0 | 9.0 | 0.00 | 0.00 | 0.00 | 79 | 1013.4 |
| 20260505213042 | 51 | 68 | 3.0 | 10.0 | 0.00 | 0.00 | 0.00 | 79 | 1013.5 |
| 20260505211538 | 51 | 58 | 3.0 | 8.0 | 0.00 | 0.00 | 0.00 | 78 | 1013.4 |
| 20260505210036 | 51 | 35 | 5.0 | 12.0 | 0.00 | 0.00 | 0.00 | 78 | 1013.4 |
| 20260505204537 | 52 | 110 | 3.0 | 12.0 | 0.00 | 0.00 | 0.00 | 77 | 1013.3 |
| 20260505203047 | 53 | 67 | 5.0 | 15.0 | 0.00 | 0.00 | 0.00 | 75 | 1013.2 |
| 20260505201540 | 53 | 36 | 1.0 | 2.0 | 0.00 | 0.00 | 0.00 | 67 | 1013.1 |
| 20260505200046 | 53 | 80 | 1.0 | 3.0 | 0.00 | 0.00 | 0.00 | 66 | 1012.9 |
| 20260505194539 | 53 | 0 | 1.0 | 7.0 | 0.00 | 0.00 | 0.00 | 67 | 1012.7 |
| 20260505193037 | 54 | 306 | 1.0 | 4.0 | 0.00 | 0.00 | 0.00 | 68 | 1012.6 |
| 20260505191545 | 54 | 342 | 1.0 | 4.0 | 0.00 | 0.00 | 0.00 | 69 | 1012.5 |
| 20260505190044 | 54 | 89 | 1.0 | 5.0 | 0.00 | 0.00 | 0.00 | 70 | 1012.4 |
| 20260505184538 | 54 | 5 | 1.0 | 8.0 | 0.00 | 0.00 | 0.00 | 69 | 1012.4 |
| 20260505183045 | 55 | 91 | 1.0 | 4.0 | 0.00 | 0.00 | 0.00 | 65 | 1012.3 |
| 20260505181540 | 55 | 309 | 0.0 | 6.0 | 0.00 | 0.00 | 0.00 | 65 | 1012.3 |
| 20260505180047 | 55 | 30 | 4.0 | 8.0 | 0.00 | 0.00 | 0.00 | 64 | 1012.2 |
| 20260505174543 | 55 | 284 | 1.0 | 5.0 | 0.00 | 0.00 | 0.00 | 65 | 1012.2 |
| 20260505173039 | 55 | 265 | 2.0 | 8.0 | 0.00 | 0.00 | 0.00 | 64 | 1012.3 |
| 20260505171540 | 56 | 85 | 1.0 | 7.0 | 0.00 | 0.00 | 0.00 | 64 | 1012.3 |
| 20260505170038 | 56 | 45 | 2.0 | 7.0 | 0.00 | 0.00 | 0.00 | 64 | 1012.4 |
| 20260505164556 | 56 | 35 | 2.0 | 9.0 | 0.00 | 0.00 | 0.00 | 64 | 1012.3 |
| 20260505163050 | 57 | 27 | 3.0 | 6.0 | 0.00 | 0.00 | 0.00 | 61 | 1012.3 |
| 20260505161539 | 57 | 28 | 2.0 | 6.0 | 0.00 | 0.00 | 0.00 | 61 | 1012.2 |
| 20260505153036 | 58 | 297 | 2.0 | 10.0 | 0.00 | 0.00 | 0.00 | 58 | 1012.3 |
| 20260505151547 | 58 | 336 | 1.0 | 5.0 | 0.00 | 0.00 | 0.00 | 56 | 1012.3 |
| 20260505124553 | 58 | 312 | 3.0 | 9.0 | 0.00 | 0.00 | 0.00 | 56 | 1012.6 |
| 20260505123044 | 58 | 92 | 2.0 | 9.0 | 0.00 | 0.00 | 0.00 | 54 | 1012.5 |
| 20260505121538 | 58 | 47 | 4.0 | 10.0 | 0.00 | 0.00 | 0.00 | 54 | 1012.7 |
| 20260505120037 | 58 | 296 | 3.0 | 10.0 | 0.00 | 0.00 | 0.00 | 57 | 1012.7 |
| 20260505114543 | 57 | 75 | 3.0 | 12.0 | 0.00 | 0.00 | 0.00 | 56 | 1012.8 |
| 20260505113050 | 57 | 253 | 2.0 | 10.0 | 0.00 | 0.00 | 0.00 | 58 | 1012.8 |
| 20260505111542 | 57 | 14 | 3.0 | 10.0 | 0.00 | 0.00 | 0.00 | 59 | 1012.9 |
| 20260505101603 | 55 | 355 | 3.0 | 9.0 | 0.00 | 0.00 | 0.00 | 64 | 1013.3 |
| 20260505100043 | 55 | 333 | 3.0 | 9.0 | 0.00 | 0.00 | 0.00 | 65 | 1013.2 |
| 20260505094540 | 55 | 46 | 2.0 | 7.0 | 0.00 | 0.00 | 0.00 | 65 | 1013.3 |
| 20260505093039 | 55 | 312 | 3.0 | 12.0 | 0.00 | 0.00 | 0.00 | 67 | 1013.5 |
| 20260505091537 | 55 | 300 | 3.0 | 12.0 | 0.00 | 0.00 | 0.00 | 66 | 1013.4 |
| 20260505090045 | 55 | 33 | 3.0 | 9.0 | 0.00 | 0.00 | 0.00 | 67 | 1013.3 |
| 20260505084541 | 54 | 69 | 3.0 | 8.0 | 0.00 | 0.00 | 0.00 | 69 | 1013.5 |
| 20260505083042 | 54 | 348 | 2.0 | 9.0 | 0.00 | 0.00 | 0.00 | 72 | 1013.6 |
| 20260505081549 | 52 | 61 | 2.0 | 8.0 | 0.00 | 0.00 | 0.00 | 76 | 1013.6 |
| 20260505080042 | 51 | 298 | 3.0 | 7.0 | 0.00 | 0.00 | 0.00 | 78 | 1013.7 |
| 20260505074543 | 50 | 315 | 1.0 | 8.0 | 0.00 | 0.00 | 0.00 | 82 | 1013.7 |
| 20260505073049 | 50 | 354 | 2.0 | 6.0 | 0.00 | 0.00 | 0.00 | 83 | 1013.6 |
| 20260505071551 | 49 | 303 | 1.0 | 7.0 | 0.00 | 0.00 | 0.00 | 84 | 1013.6 |
| 20260505070043 | 49 | 339 | 1.0 | 6.0 | 0.00 | 0.00 | 0.00 | 83 | 1013.7 |
| 20260505064542 | 49 | 320 | 1.0 | 4.0 | 0.00 | 0.00 | 0.00 | 84 | 1013.7 |
| 20260505063043 | 48 | 0 | 0.0 | 4.0 | 0.00 | 0.00 | 0.00 | 88 | 1013.8 |
| 20260505061537 | 47 | 319 | 0.0 | 2.0 | 0.00 | 0.00 | 0.00 | 89 | 1013.8 |
| 20260505060045 | 46 | 28 | 0.0 | 2.0 | 0.00 | 0.00 | 0.00 | 91 | 1013.6 |
| 20260505054553 | 46 | 0 | 0.0 | 1.0 | 0.00 | 0.00 | 0.00 | 91 | 1013.7 |
| 20260505053057 | 45 | 0 | 0.0 | 1.0 | 0.00 | 0.00 | 0.00 | 92 | 1013.6 |
| 20260505051543 | 45 | 0 | 0.0 | 2.0 | 0.00 | 0.00 | 0.00 | 91 | 1013.6 |
| 20260505041539 | 45 | 288 | 0.0 | 3.0 | 0.00 | 0.00 | 0.00 | 90 | 1013.3 |
| 20260505040044 | 45 | 319 | 0.0 | 4.0 | 0.00 | 0.00 | 0.00 | 90 | 1013.4 |
| 20260505034543 | 45 | 310 | 0.0 | 4.0 | 0.00 | 0.00 | 0.00 | 90 | 1013.4 |
| 20260505033045 | 45 | 319 | 0.0 | 2.0 | 0.00 | 0.00 | 0.00 | 92 | 1013.4 |
| 20260505031540 | 44 | 0 | 0.0 | 3.0 | 0.00 | 0.00 | 0.00 | 93 | 1013.5 |
| 20260505030041 | 44 | 319 | 0.0 | 2.0 | 0.00 | 0.00 | 0.00 | 95 | 1013.6 |
| 20260505024538 | 44 | 0 | 0.0 | 3.0 | 0.00 | 0.00 | 0.00 | 95 | 1013.6 |
| 20260505023050 | 44 | 0 | 0.0 | 4.0 | 0.00 | 0.00 | 0.00 | 96 | 1013.6 |
| 20260505021540 | 43 | 309 | 0.0 | 2.0 | 0.00 | 0.00 | 0.00 | 97 | 1013.7 |
| 20260505020038 | 43 | 0 | 0.0 | 1.0 | 0.00 | 0.00 | 0.00 | 96 | 1013.6 |
| 20260505014541 | 43 | 0 | 0.0 | 1.0 | 0.00 | 0.00 | 0.00 | 96 | 1013.7 |
| 20260505013036 | 43 | 0 | 0.0 | 0.0 | 0.00 | 0.00 | 0.00 | 96 | 1013.8 |
| 20260505011551 | 43 | 0 | 0.0 | 0.0 | 0.00 | 0.00 | 0.00 | 95 | 1013.9 |
| 20260505010042 | 44 | 0 | 0.0 | 0.0 | 0.00 | 0.00 | 0.00 | 95 | 1014.0 |
| 20260505004541 | 44 | 0 | 0.0 | 0.0 | 0.00 | 0.00 | 0.00 | 95 | 1014.1 |
| 20260505003038 | 44 | 0 | 0.0 | 1.0 | 0.00 | 0.00 | 0.00 | 95 | 1014.3 |
| 20260505001538 | 45 | 258 | 0.0 | 1.0 | 0.00 | 0.00 | 0.00 | 95 | 1014.3 |
| 20260505000047 | 46 | 0 | 0.0 | 0.0 | 0.00 | 0.00 | 0.00 | 94 | 1014.4 |
| 20260504234543 | 46 | 0 | 0.0 | 1.0 | 0.00 | 0.00 | 0.00 | 95 | 1014.6 |